Regional Weather Roundup
Issued by NWS

Home | Current Version | Previous Version | Graphics & Text | Print | Product List | Glossary On
Versions: 1 2 3 4 5 6 7 8 9 10 11 12 13 14 15 16 17 18 19 20 21 22 23 24 25 26 27 28 29 30 31 32 33 34 35 36 37 38 39 40 41 42 43 44 45 46 47 48 49 50
287
ASUS45 KBOU 191507
RWRCO

WEATHER ROUNDUP FOR COLORADO
NATIONAL WEATHER SERVICE DENVER/BOULDER CO
900 AM MDT THU OCT 19 2017

NOTE: "FAIR" INDICATES FEW OR NO CLOUDS BELOW 12000 FEET WITH NO
SIGNIFICANT WEATHER AND/OR OBSTRUCTIONS TO VISIBILITY.

COZ001>005-013-030-031-191600-
...NORTHWEST COLORADO...

CITY           SKY/WX    TMP DP  RH WIND       PRES   REMARKS
CRAIG          FAIR      35  25  66 W5        30.16R WCI  31
HAYDEN         FAIR      43  17  35 SE9       30.18R
MEEKER         FAIR      40  22  48 CALM      30.16R
RABBIT EARS PA FAIR      45  10  24 CALM      30.35S
STEAMBOAT SPGS FAIR      32  19  58 CALM      30.19S
WALDEN         NOT AVBL
$$

COZ006>008-011-191600-
...WEST CENTRAL VALLEYS...

CITY           SKY/WX    TMP DP  RH WIND       PRES   REMARKS
GRAND JUNCTION FAIR      45  20  36 CALM      30.11R
MONTROSE       FAIR      43  24  47 S5        30.18R
EAGLE          FAIR      33  18  53 CALM      30.28S
RIFLE          FAIR      44  25  47 CALM      30.16S
DELTA          FAIR      47  16  28 E3        30.15R
NUCLA          FAIR      45  18  33 SE5       30.20R
$$

COZ017>023-064>068-191600-
...SOUTHWEST COLORADO...

CITY           SKY/WX    TMP DP  RH WIND       PRES   REMARKS
DURANGO        FAIR      44  24  45 E5        30.21R
CORTEZ         PTSUNNY   48  32  53 CALM      30.16R
PAGOSA SPRINGS FAIR      43  25  47 CALM      30.27R
TELLURIDE      NOT AVBL
WOLF CREEK PAS NOT AVBL
$$

COZ009-010-012-014-032>034-037-058>063-191600-
...CENTRAL COLORADO...

CITY           SKY/WX    TMP DP  RH WIND       PRES   REMARKS
ASPEN          FAIR      43  22  43 CALM      30.23R
BUENA VISTA    FAIR      38  15  38 NW5       30.29R
COPPER MTN     FAIR      48   5  17 S13       30.45R
BERTHOUD PASS  FAIR      36  28  75 W9G18     30.47S
COTTONWOOD PAS FAIR      52   7  16 CALM      30.35S
GUNNISON       FAIR      28  15  58 E3        30.33R
KREMMLING      FAIR      30  21  69 CALM      30.31S
LEADVILLE      FAIR      35  10  35 NE3       30.34S
SALIDA         NOT AVBL
SUNLIGHT       PTSUNNY   43   9  24 SW9G18    30.40R
WILKERSON PASS FAIR      41   0  17 SW9       30.45R
$$

COZ069>075-191600-
...SAN LUIS VALLEY/SANGRE DE CRISTO MOUNTAINS...

CITY           SKY/WX    TMP DP  RH WIND       PRES   REMARKS
ALAMOSA        FAIR      40  20  44 CALM      30.28S
DEL NORTE      FAIR      42  16  35 W12       30.29S
LA VETA PASS   FAIR      46  18  31 S8        30.49R
SAGUACHE       FAIR      39  14  35 N6        30.30R
$$

COZ035-036-038>040-191600-
...NORTHERN COLORADO FRONT RANGE...

CITY           SKY/WX    TMP DP  RH WIND       PRES   REMARKS
DENVER INTL AP PTSUNNY   54  24  31 W6        30.08S
DMNS CITY PARK   N/A     52  31  45 N5        30.08S
AURORA         PTSUNNY   53  26  34 SW7       30.10R
FRONT RANGE AP PTSUNNY   55  25  30 SW8       30.10R
ERIE MUNI ARPT FAIR      46  30  54 CALM      30.14R
BOULDER MUN AP FAIR      50  27  40 CALM      30.08R
CENTENNIAL     FAIR      54  25  32 N3        30.10R
BROOMFIELD     PTSUNNY   52  23  32 CALM      30.11R
FORT COLLINS   FAIR      47  32  56 N3        30.08S
LONGMONT       FAIR      47  32  56 SW3       30.10R
$$

COZ041-046-047-076>085-087-088-191600-
...PIKES PEAK/PALMER DIVIDE AND SOUTHERN FOOTHILLS...

CITY           SKY/WX    TMP DP  RH WIND       PRES   REMARKS
COLO. SPRINGS  FAIR      59  28  30 CALM      30.16R
A. F. ACADEMY  SUNNY     49  22  35 N7        30.16R
SCHRIEVER AFB  FAIR      58  24  26 E3        30.16R
CHEYENNE MTN   NOT AVBL
ELLICOTT       FAIR     N/A N/A N/A MISG      30.14R
FALCON         FAIR      59  20  22 CALM      30.19R
FORT CARSON    FAIR      52  27  37 N7        30.13R
LIMON          FAIR      51  31  46 CALM      30.12R
MONUMENT HILL  NOT AVBL
CANON CITY     SUNNY     61  18  18 W16       30.12S
WALSENBURG     FAIR      63  23  22 SW8       30.15S
TRINIDAD       FAIR      58  26  29 W12       30.15R
$$

COZ042>045-048>051-090-091-191600-
...NORTHEAST COLORADO...

CITY           SKY/WX    TMP DP  RH WIND       PRES   REMARKS
GREELEY ARPT   FAIR      40  29  64 CALM      30.09R
AKRON          FAIR      58  32  37 SW7       30.07R
BURLINGTON     FAIR      62  42  47 S8        30.09R
WRAY           FAIR      50  36  57 W7        30.07S
YUMA           NOT AVBL
STERLING       FAIR      45  34  65 W3        30.06R
HOLYOKE        FAIR      50  36  57 SW5       30.06S
FORT MORGAN    FAIR      43  29  57 SW7       30.08R
$$

COZ086-089-092>099-191600-
...SOUTHEAST COLORADO...

CITY           SKY/WX    TMP DP  RH WIND       PRES   REMARKS
PUEBLO         FAIR      47  31  53 CALM      30.11R
LA JUNTA       FAIR      48  31  51 W9        30.10R
LAMAR          FAIR      49  36  61 W6        30.09R
SPRINGFIELD      N/A     57  43  59 CALM      30.10R
$$




USA.gov is the U.S. government's official web portal to all federal, state and local government web resources and services.